STARLINK-32083, 60343

Orbit data source: Space-Track

STARLINK-32083, 60343 is a payload satellite owned by SpaceX/Seattle (US) in LEO that was launched on Fri, 02 Aug 2024 UTC via an FALCON 9 launch vehicle from the Air Force Eastern Test Range (AFETR). Payload-class satellites include a variety of spacecraft equipped with specific instruments for various scientific and technological missions. These include communications satellites like Starlink; space stations such as the ISS; scientific satellites like the Hubble; Earth observation satellites from companies like Planet Labs, Umbra, and HawkEye 360; GPS; miniature CubeSats for education and research; and military/defense satellites.

Loading next visibility...
Identifier
60343, 2024-136Q
Orbit
LEO
Country
Flag of USUS
Related business
Manufacturer
SpaceX/Seattle
Mission
Operational Commercial Communications
Bus & Motor
STARLINK V2M, Unknown motor
Mass
730 kg wet, ~700 kg dry
Launch date (UTC)
2024-08-02 (1 year ago)
Launch vehicle
FALCON 9
Launch site
Air Force Eastern Test Range (AFETR)
Object type
Payload
Rocket body
Debris
Shape & HBR
Box + 2 Pan, 14.5 m
Radar Cross Section
33.884 m², Large (>1 m²)

Expand to show TLE details & history
Last TLE update: 23 hours ago

TLE from 23 hours ago
0 STARLINK-32083
1 60343U 24136Q   25261.11853529  .00003223  00000-0  12093-3 0  9990
2 60343  53.1595 157.1668 0001390  97.2670 262.8489 15.30197088 63240
Epoch: 2025-09-18T02:50Z
TLE epoch observation values (Epoch: 2025-09-18T02:50:41.449Z)
Latitude
0.00002°
Longitude
117.20939°
Altitude
476.242 km
Speed
7.629 km/s
True Right ascension
10h 28m 40s
True Declination
0° 00' 00"
Sunlit
Object was in daylight at epoch
Visualization orbit readout
Latitude
Unknown
Longitude
Unknown
Altitude
Unknown
Speed
Unknown
Apparent Right ascension
Unknown
Apparent Declination
Unknown
Sunlit
N/A
Visualization observer readout
Local Sidereal Time
18:41:52
Azimuth
Unknown
Elevation
Unknown
Doppler factor
Unknown
Orbital elements
Apogee altitude
476.433 km
Perigee altitude
474.528 km
Semi-major axis
6,853.617 km
Eccentricity
0.00014
Inclination
53.1595°
RAAN
157.1668°
Arg. of periapsis
97.267°
True anomaly
262.8331°
Mean anomaly
262.8489°
Eccentric anomaly
262.841°
Mean motion
3.82528 °/min
Orbital period
94.11 mins
BSTAR
0.00012093
Loading maneuver chart data...
Computing Atmospheric mass density...
Loading historical data...
Loading historical data...
Loading historical data...
Loading historical data...
Loading historical data...
Loading historical data...
Loading historical data...

Documentation

Showing up to 5 results
|